SCP
0 0 0 0 0 0 0 0 0 0 0 0 0 0 0 0 0 0 0 0 0 0 0 0 0 0 0 0 0 0 0 0 0 0 0 0 0 0 0 0 0 0 0
0 0 0 0 0 0 0 0 0 0 0 0 0 0 0 0 0 0 0 0 0 0 0 0 0 0 0 0 0 0 0 0 0 0 0 0 0 0 0 0 0 0 0
0 0 0 0 0 0 0 0 0 0 0 0 0 0 0 0 0 0 0 0 0 0 0 0 0 0 0 0 0 0 0 0 0 0 0 0 0 0 0 0 0 0 0
0 0 0 0 0 0 0 0 0 0 0 0 0 0 0 0 0 0 0 0 0 0 0 0 0 0 0 0 0 0 0 0 0 0 0 0 0 0 0 0 0 0 0
0 0 0 0 0 0 0 0 0 0 0 0 0 0 0 0 0 0 0 0 0 0 0 0 0 0 0 0 0 0 0 0 0 0 0 0 0 0 0 0 0 0 0
1 1 0 0 1 1 1 0 0 0 0 0 0 0 0 0 0 0 0 0 0 0 0 0 0 0 0 0 0 0 0 0 0 0 0 0 0 0 0 0 0 0 0
1 1 1 1 1 1 1 1 0 0 0 0 0 0 0 0 0 0 0 0 0 0 0 0 0 0 0 0 0 0 0 0 0 0 0 0 0 0 0 0 0 0 0
0 0 0 1 1 1 1 1 0 0 0 0 0 0 0 0 0 0 0 0 0 0 0 0 0 0 0 0 0 0 0 0 0 0 0 0 0 0 0 0 0 0 0
0 0 0 1 1 1 1 1 0 0 0 0 0 0 0 0 0 0 0 0 0 0 0 0 0 0 0 0 0 0 0 0 0 0 0 0 0 0 0 0 0 0 0
0 0 0 1 1 1 1 1 1 0 0 0 0 0 0 0 0 0 0 0 0 0 0 0 0 0 0 0 0 0 0 0 0 0 0 0 0 0 0 0 0 0 0
1 1 1 1 1 1 1 1 1 0 0 0 0 0 0 0 0 0 0 0 0 0 0 0 0 0 0 0 0 0 0 0 0 0 0 0 0 0 0 0 0 0 0
1 1 1 1 1 1 1 1 0 0 0 0 0 0 0 0 0 0 0 0 0 0 0 0 0 0 0 0 0 0 0 0 0 0 0 0 0 0 0 0 0 0 0
1 1 1 1 1 1 1 1 0 0 0 0 0 0 0 0 0 0 0 0 0 0 0 0 0 0 0 0 0 0 0 0 0 0 0 0 0 0 0 0 0 0 0
1 1 1 1 1 1 1 1 0 0 0 0 0 0 0 0 0 0 0 0 0 0 0 0 0 0 0 0 0 0 0 0 0 0 0 0 0 0 0 0 0 0 0
1 1 1 1 1 1 1 1 0 0 0 0 0 0 0 0 0 0 0 0 0 0 0 0 0 0 0 0 0 0 0 0 0 0 0 0 0 0 0 0 0 0 0
1 1 1 1 1 1 0 0 0 0 0 0 0 0 0 0 0 0 0 0 0 0 0 0 0 0 0 0 0 0 0 0 0 0 0 0 0 0 0 0 0 0 0
1 1 1 1 1 1 0 0 0 0 0 0 0 0 0 0 0 0 0 0 0 0 0 0 0 0 0 0 0 0 0 0 0 0 0 0 0 0 0 0 0 0 0
1 1 0 0 0 0 0 0 0 0 0 0 0 0 0 0 0 0 0 0 0 0 0 0 0 0 0 0 0 0 0 0 0 0 0 0 0 0 0 0 0 0 0
1 0 0 0 0 0 0 0 0 0 0 0 0 0 0 0 0 0 0 0 0 0 0 0 0 0 0 0 0 0 0 0 0 0 0 0 0 0 0 0 0 0 0
1 0 0 0 0 0 1 1 1 1 1 0 0 0 0 0 0 0 0 0 0 0 0 0 0 0 0 0 0 0 0 0 0 0 0 0 0 0 0 0 0 0 0
1 1 1 0 0 1 1 1 1 1 1 0 0 0 0 0 0 0 0 0 0 0 0 0 0 0 0 0 0 0 0 0 0 0 0 0 0 0 0 0 0 0 0
1 1 1 1 1 1 1 1 1 0 0 0 0 0 0 0 0 0 0 0 0 0 0 0 0 0 0 0 0 0 0 0 0 0 0 0 0 0 0 0 0 0 0
1 1 1 1 1 1 1 0 0 0 0 0 0 0 0 0 0 0 0 0 0 0 0 0 0 0 0 0 0 0 0 0 0 0 0 0 0 0 0 0 0 0 0
1 1 1 1 0 0 0 0 0 0 0 0 0 0 0 0 0 0 0 0 0 0 0 0 0 0 0 0 0 0 0 0 0 0 0 0 0 0 0 0 0 0 0
1 1 1 0 0 0 0 0 0 0 0 0 0 0 0 0 0 0 0 0 0 0 0 0 0 0 0 0 0 0 0 0 0 0 0 0 0 0 0 0 0 0 0
1 1 0 0 0 0 0 0 0 0 0 0 0 0 0 0 0 0 0 0 0 0 0 0 0 0 0 0 0 0 0 0 0 0 0 0 0 0 0 0 0 0 0
Wind_Speed
7 6 7 7 7 6 5 4 4 3 3 3 2 2 2 2 2 2 2 3 3 3 3 3 2 2 2 1 1 2 2 1 1 2 2 2 1 1 1 1 2 3 3
6 6 6 7 6 6 5 5 4 4 3 3 2 2 2 1 1 1 2 2 3 2 3 3 2 2 2 1 1 1 1 0 1 2 2 2 3 2 1 1 2 2 2
11 9 7 7 7 6 6 6 4 4 3 4 3 3 2 2 2 2 1 2 2 2 2 2 2 1 2 1 1 2 3 1 1 1 3 2 2 1 2 0 1 2 2
10 9 8 7 7 7 6 6 5 4 3 4 4 5 3 2 1 1 1 1 2 2 2 2 2 1 1 1 1 1 1 2 0 1 1 2 3 2 1 2 1 0 2
10 11 10 8 7 6 6 5 5 4 3 4 5 4 3 2 1 1 2 1 1 1 1 2 2 1 1 1 1 1 1 1 1 1 0 0 1 1 2 1 1 1 1
9 9 8 7 6 6 5 5 5 3 3 4 4 5 4 3 2 2 1 1 1 1 2 1 1 1 1 1 0 0 1 0 0 0 0 1 1 1 2 2 1 0 1
9 9 9 8 7 7 6 6 6 4 3 4 4 4 4 4 3 3 2 1 1 1 1 1 1 0 0 0 0 1 1 1 1 0 0 0 1 1 2 3 2 1 1
8 9 9 9 8 8 6 6 5 4 4 4 3 3 3 2 2 2 2 2 1 1 0 1 1 1 1 1 1 1 0 1 1 1 0 0 0 0 2 3 3 2 1
9 9 8 8 8 8 7 6 6 4 4 3 3 3 2 2 2 2 2 1 1 1 1 1 1 0 1 1 1 1 1 1 1 0 1 1 1 0 0 1 3 4 3
9 8 8 8 7 8 7 6 5 4 3 3 3 3 2 2 2 2 2 1 1 1 2 1 1 1 1 1 1 1 1 1 1 0 1 1 1 1 1 1 1 2 4
9 8 8 7 7 6 6 6 5 4 3 4 3 3 2 2 2 2 1 1 1 2 2 1 1 2 2 1 1 1 1 1 1 1 1 1 1 1 1 1 2 2 2
9 9 8 8 7 7 6 6 5 5 4 4 4 3 3 3 2 1 1 1 1 1 1 1 1 1 1 1 1 1 1 1 0 1 1 1 1 2 1 1 2 1 1
8 8 8 7 8 7 6 6 6 5 5 4 4 3 2 2 2 1 1 1 1 1 1 1 1 0 0 1 0 0 1 1 1 0 0 0 1 1 1 1 1 1 1
9 8 7 6 6 6 6 6 6 5 5 5 4 3 2 2 2 1 1 1 1 1 1 0 0 1 0 0 0 1 0 0 1 1 0 0 0 1 1 1 1 1 1
9 9 8 6 6 6 5 6 5 5 5 5 4 3 3 2 2 1 1 1 1 0 0 0 1 1 1 0 0 0 0 0 0 1 1 0 0 0 1 1 1 1 1
9 9 8 7 7 6 6 5 5 5 5 5 4 3 3 2 2 2 1 1 0 0 0 0 1 1 2 1 1 1 1 1 1 1 1 1 1 1 1 0 1 3 3
8 8 8 7 7 6 7 6 5 4 5 4 4 3 3 3 2 2 2 1 1 0 0 1 1 1 2 2 2 1 1 1 1 1 1 2 2 1 0 1 1 1 2
7 7 7 6 6 5 5 5 5 5 4 4 3 3 3 3 2 2 2 2 1 1 1 1 1 1 2 2 2 2 1 1 1 2 2 2 2 2 1 1 1 2 2
6 6 6 6 6 6 6 5 4 4 4 3 3 3 4 3 3 3 3 2 1 1 1 1 1 1 3 2 2 1 1 1 2 2 2 2 2 2 1 1 2 3 4
4 5 5 5 5 5 5 6 4 4 4 4 3 3 3 3 3 3 3 1 1 1 1 2 2 2 2 2 2 1 1 1 2 2 2 2 2 2 1 1 2 3 4
5 5 6 5 4 5 6 5 4 3 3 3 2 2 2 2 3 2 1 1 1 0 1 1 2 2 2 2 2 1 1 2 1 2 2 2 2 3 3 2 3 5 4
5 5 5 4 3 4 5 5 3 2 2 2 2 1 1 1 1 1 1 1 1 0 1 1 2 2 2 2 2 2 2 2 2 3 3 3 3 4 4 3 4 5 2
4 4 5 5 3 3 4 4 2 2 2 2 2 1 1 1 1 2 2 1 1 1 1 1 1 2 2 2 3 2 3 3 2 3 4 4 5 4 4 4 5 3 1
5 5 6 5 3 2 3 2 2 3 3 2 2 1 1 1 0 1 1 2 2 2 2 1 2 2 2 2 2 2 2 3 2 2 3 4 4 3 3 3 3 2 2
4 4 5 4 3 2 3 2 2 3 3 1 1 1 1 1 0 1 1 1 3 3 3 3 2 2 3 5 4 2 2 2 2 1 1 1 1 1 2 2 2 2 2
3 4 4 4 3 2 2 1 1 2 3 1 1 1 1 1 1 0 2 3 1 1 2 3 3 3 4 4 4 3 3 3 2 2 1 1 1 2 2 3 3 3 3
Wind_Direction
161 151 144 138 131 125 119 115 108 103 101 98 99 93 75 58 53 60 68 73 78 86 95 100 95 90 96 107 117 112 99 103 111 84 25 351 314 212 197 181 171 194 197
154 157 151 147 145 143 139 135 132 127 122 125 129 128 124 104 98 60 58 74 84 92 103 104 109 105 98 77 79 117 116 144 139 131 100 14 348 338 248 170 181 189 168
168 168 162 158 150 152 156 150 151 141 134 127 110 96 73 54 46 42 39 38 72 83 98 110 116 117 125 136 154 152 146 170 268 160 146 151 215 303 334 345 143 156 148
166 166 163 162 162 166 161 153 151 142 139 133 125 124 121 127 160 154 84 52 53 69 91 101 109 110 106 119 141 132 144 146 204 300 205 181 163 157 291 336 358 119 150
166 167 166 169 166 161 155 148 142 137 136 133 138 132 126 138 128 93 80 54 34 48 75 103 101 98 90 107 80 82 113 137 162 203 223 92 95 133 150 222 309 353 342
161 159 157 152 150 149 144 142 135 135 138 138 137 138 140 140 124 111 99 60 19 24 34 70 82 87 94 131 149 143 120 115 118 124 133 153 159 180 158 173 198 211 303
159 156 153 151 153 151 150 145 140 139 140 132 138 146 150 150 150 155 153 141 70 22 357 43 59 49 130 99 73 80 62 62 87 105 165 174 200 179 159 147 159 175 266
161 161 162 160 157 153 150 151 151 152 153 144 144 135 134 141 146 156 159 159 168 186 263 72 79 60 56 61 67 56 13 56 89 62 60 43 329 148 157 157 150 136 355
161 160 161 158 157 157 161 162 159 155 158 155 145 134 133 133 134 129 135 143 154 132 74 57 83 50 40 43 74 77 21 34 39 31 44 48 345 21 123 145 152 153 164
160 161 160 162 163 164 162 156 154 155 157 150 152 143 134 123 116 108 110 117 110 100 95 57 55 38 27 40 61 61 20 33 351 20 45 24 353 18 62 107 115 134 152
162 154 154 160 154 147 148 148 149 141 140 143 133 117 112 105 91 94 115 119 97 99 104 101 68 35 19 20 37 348 20 46 348 1 37 8 14 38 29 67 91 96 124
152 148 150 153 149 147 150 149 148 144 142 136 130 129 129 118 106 103 129 127 119 109 113 96 83 61 28 20 29 358 23 51 3 341 22 353 24 37 32 76 90 101 127
137 142 147 149 153 155 157 155 154 152 147 140 133 127 128 129 133 138 134 119 113 97 90 96 101 117 53 11 339 76 57 26 347 342 66 333 42 32 43 68 91 96 86
142 146 150 152 152 152 155 155 155 155 150 144 140 140 148 152 156 155 137 125 125 118 94 111 208 240 237 31 31 64 83 15 351 355 33 287 122 141 116 77 112 114 90
152 156 156 154 149 150 155 154 155 158 156 150 151 163 163 155 150 142 139 127 143 155 154 110 325 304 260 243 109 207 235 239 311 347 328 274 97 133 170 149 174 149 144
160 156 152 151 155 157 157 156 158 162 155 157 170 174 164 163 168 168 154 135 106 7 92 119 296 300 295 299 267 183 216 206 192 264 301 297 300 358 21 57 184 183 184
155 157 160 164 164 162 159 164 166 157 155 163 170 173 171 172 181 178 152 161 185 169 118 259 280 286 301 320 308 301 212 194 200 220 252 284 290 306 277 306 319 265 219
153 158 159 159 159 156 155 154 150 150 155 160 170 178 174 177 180 177 191 205 199 196 218 244 268 291 317 332 314 316 253 199 215 227 223 231 267 266 228 247 299 285 257
158 162 163 159 156 156 152 138 142 148 154 170 185 192 184 184 188 198 212 214 196 214 231 231 235 264 298 326 326 330 272 234 260 257 243 211 225 266 258 209 268 293 290
133 142 139 131 140 151 145 138 146 154 174 190 194 195 188 191 197 202 204 200 189 218 236 251 244 235 262 296 301 259 210 251 281 284 263 235 236 264 268 204 217 258 271
130 131 128 130 145 150 141 141 146 175 194 182 171 173 179 191 192 198 194 180 191 229 264 266 276 262 267 284 275 243 205 218 246 265 270 267 269 262 260 236 230 245 254
123 124 123 120 115 125 130 133 155 180 146 132 128 141 160 177 151 156 183 189 179 180 288 303 312 307 302 297 278 258 241 222 209 238 248 258 267 261 262 254 256 256 259
122 112 114 107 93 102 125 137 163 132 108 106 114 99 86 103 138 159 183 186 180 201 254 265 279 295 301 299 298 279 268 255 237 242 250 262 268 269 265 267 273 263 235
113 114 111 108 105 95 102 125 139 126 115 126 136 135 125 118 49 175 188 196 203 208 227 240 264 287 296 295 293 284 273 269 257 254 269 281 277 268 279 296 293 261 232
110 117 122 124 123 107 93 95 121 122 116 123 140 138 144 161 182 273 248 216 217 207 210 221 223 239 268 271 265 253 260 253 244 250 317 326 333 314 305 299 285 272 260
121 119 122 124 122 110 98 80 90 116 125 134 179 184 180 184 174 146 352 356 327 301 267 244 244 259 261 281 267 259 260 251 207 154 194 247 248 251 260 271 283 274 261